STRAND-1

Last updated on Wed Aug 19 2026 00:03:14 GMT+0000 (Coordinated Universal Time)

1 39090U 13009E 26230.43639188 .00000190 00000+0 78185-4 0 9991 2 39090 98.3959 49.1524 0009580 50.4477 309.7555 14.37194481706009
UTC large
Height (km)
Speed (km/s)
/
Latitude / Longitude
Inclination (degrees)
Orbital Period (minutes)
Azimuth
Elevation
Range (km)
Doppler Factor

Next 0 passes for location: London (51.5072 / 0.1276)

No passes found over London.
STRAND-1